Regional Weather Roundup
Issued by NWS

Home | Current Version | Previous Version | Text Only | Print | Product List | Glossary Off
Versions: 1 2 3 4 5 6 7 8 9 10 11 12 13 14 15 16 17 18 19 20 21 22 23 24 25 26 27 28 29 30 31 32 33 34 35 36 37 38 39 40 41 42 43 44 45 46 47 48 49 50

000
ASUS43 KLMK 141302
RWRKY
KENTUCKY REGIONAL WEATHER ROUNDUP
NATIONAL WEATHER SERVICE LOUISVILLE KY
800 AM EST SUN FEB 14 2016

NOTE "FAIR" INDICATES FEW OR NO CLOUDS BELOW 12,000 FEET
WITH NO SIGNIFICANT WEATHER AND/OR OBSTRUCTIONS TO VISIBILITY.

KYZ001>023-026-027-061>063-070>075-141400-
WESTERN AND SOUTH CENTRAL KENTUCKY

CITY           SKY/WX    TMP DP  RH WIND       PRES   REMARKS
PADUCAH        CLOUDY    26  10  50 E12       30.28F WCI  16
HENDERSON      CLOUDY    21  16  79 E8        30.37S WCI  12
OWENSBORO      FLURRIES  21  16  81 E15       30.38F WCI   8
HOPKINSVILLE   MOCLDY    26  11  52 E16       30.32F WCI  13
BOWLING GREEN  LGT SNOW  24  13  62 E7        30.40F WCI  16
GLASGOW        NOT AVBL
$$

KYZ024-025-028>034-038-045-046-053-141400-
NORTH CENTRAL KENTUCKY

CITY           SKY/WX    TMP DP  RH WIND       PRES   REMARKS
LOUISVILLE/SDF LGT SNOW  20   8  60 E7        30.43F WCI  11
LOUISVILLE/LOU CLOUDY    20   6  55 SE7       30.43F WCI  11
FORT KNOX      CLOUDY    19   8  63 E9        30.37F WCI   8
$$

KYZ035>037-039>044-047>052-055>060-089>105-141400-
NORTHEAST KENTUCKY

CITY           SKY/WX    TMP DP  RH WIND       PRES   REMARKS
LEXINGTON      CLOUDY    17   4  56 E9        30.42F WCI   6
COVINGTON      CLOUDY    14   4  64 SE9       30.43F WCI   2
FRANKFORT      CLOUDY    18   4  54 E8        30.41F WCI   8
$$

KYZ054-064>069-076>088-106>120-141400-
SOUTHEAST KENTUCKY

CITY           SKY/WX    TMP DP  RH WIND       PRES   REMARKS
JACKSON        CLOUDY    14   1  56 CALM      30.40R
LONDON         CLOUDY    18   4  54 E7        30.39F WCI   9
SOMERSET       NOT AVBL
MIDDLESBORO    NOT AVBL
MONTICELLO     CLOUDY    20   8  60 VRB5      30.40S WCI  13
$$




USA.gov is the U.S. government's official web portal to all federal, state and local government web resources and services.